Location: Grums
(59.3529°N, 13.1129°E)
Time: 22:32:40
(UTC+02:00)

Envisat - Pass Details

Date: 05 October 2021
Orbit: 764 x 766 km, 98.2° (Epoch: 18 October)

Event Time Altitude Azimuth Distance (km) Brightness Sun altitude
Rises 04:41:36 0° 24° (NNE) 3,247 7.1 -20.7°
Reaches altitude 10° 04:45:05 10° 49° (NE) 2,314 6.6 -20.3°
Maximum altitude 04:47:47 14° 81° (E) 2,025 6.2 -20.0°
Drops below altitude 10° 04:50:28 10° 113° (ESE) 2,305 6.0 -19.7°
Sets 04:53:54 0° 138° (SE) 3,226 6.5 -19.3°
